owner,sensor,date,latitude,longitude,vertical_datum,sea_water_practical_salinity,qcFlag 
TCOON,ioos:station:TCOON:127:1,2015-08-01T00:30:00Z,28.2598,-96.7737,0.0,10.8,1111122 
TCOON,ioos:station:TCOON:127:1,2015-08-01T02:30:00Z,28.2598,-96.7737,0.0,10.9,1111122 
TCOON,ioos:station:TCOON:127:1,2015-08-01T03:30:00Z,28.2598,-96.7737,0.0,11.0,1111122 
TCOON,ioos:station:TCOON:127:1,2015-08-01T10:30:00Z,28.2598,-96.7737,0.0,10.4,1111122 
TCOON,ioos:station:TCOON:127:1,2015-08-01T11:30:00Z,28.2598,-96.7737,0.0,10.5,1111122 
TCOON,ioos:station:TCOON:127:1,2015-08-01T12:30:00Z,28.2598,-96.7737,0.0,10.6,1111122 
TCOON,ioos:station:TCOON:127:1,2015-08-01T13:30:00Z,28.2598,-96.7737,0.0,10.6,1111122 
TCOON,ioos:station:TCOON:127:1,2015-08-01T14:30:00Z,28.2598,-96.7737,0.0,10.7,1111122 
TCOON,ioos:station:TCOON:127:1,2015-08-01T15:30:00Z,28.2598,-96.7737,0.0,10.7,1111122 
TCOON,ioos:station:TCOON:127:1,2015-08-01T17:30:00Z,28.2598,-96.7737,0.0,11.0,1111122 
TCOON,ioos:station:TCOON:127:1,2015-08-01T18:30:00Z,28.2598,-96.7737,0.0,10.7,1111122 
TCOON,ioos:station:TCOON:127:1,2015-08-01T19:30:00Z,28.2598,-96.7737,0.0,10.4,1111122 
TCOON,ioos:station:TCOON:127:1,2015-08-01T20:30:00Z,28.2598,-96.7737,0.0,10.0,1111122 
TCOON,ioos:station:TCOON:127:1,2015-08-01T21:30:00Z,28.2598,-96.7737,0.0,10.0,1111122 
TCOON,ioos:station:TCOON:127:1,2015-08-01T22:30:00Z,28.2598,-96.7737,0.0,10.1,1111122 
TCOON,ioos:station:TCOON:127:1,2015-08-01T23:30:00Z,28.2598,-96.7737,0.0,10.2,1111122 
TCOON,ioos:station:TCOON:127:1,2015-08-02T00:30:00Z,28.2598,-96.7737,0.0,10.1,1111122 
TCOON,ioos:station:TCOON:127:1,2015-08-02T01:30:00Z,28.2598,-96.7737,0.0,10.0,1111122 
TCOON,ioos:station:TCOON:127:1,2015-08-02T09:30:00Z,28.2598,-96.7737,0.0,9.7,1111122 
TCOON,ioos:station:TCOON:127:1,2015-08-02T12:30:00Z,28.2598,-96.7737,0.0,9.6,1111122 
TCOON,ioos:station:TCOON:127:1,2015-08-03T05:30:00Z,28.2598,-96.7737,0.0,9.3,1111122 
TCOON,ioos:station:TCOON:127:1,2015-08-03T06:30:00Z,28.2598,-96.7737,0.0,9.3,1111122 
TCOON,ioos:station:TCOON:127:1,2015-08-04T03:30:00Z,28.2598,-96.7737,0.0,9.9,1111122 
TCOON,ioos:station:TCOON:127:1,2015-08-04T04:30:00Z,28.2598,-96.7737,0.0,9.9,1111122 
TCOON,ioos:station:TCOON:127:1,2015-08-04T05:30:00Z,28.2598,-96.7737,0.0,9.9,1111122 
TCOON,ioos:station:TCOON:127:1,2015-08-04T06:30:00Z,28.2598,-96.7737,0.0,9.9,1111122 
TCOON,ioos:station:TCOON:127:1,2015-08-04T07:30:00Z,28.2598,-96.7737,0.0,9.9,1111122 
TCOON,ioos:station:TCOON:127:1,2015-08-04T08:30:00Z,28.2598,-96.7737,0.0,9.8,1111122 
TCOON,ioos:station:TCOON:127:1,2015-08-04T09:30:00Z,28.2598,-96.7737,0.0,9.7,1111122 
TCOON,ioos:station:TCOON:127:1,2015-08-04T10:30:00Z,28.2598,-96.7737,0.0,9.7,1111122 
TCOON,ioos:station:TCOON:127:1,2015-08-04T11:30:00Z,28.2598,-96.7737,0.0,9.6,1111122 
TCOON,ioos:station:TCOON:127:1,2015-08-04T12:30:00Z,28.2598,-96.7737,0.0,9.8,1111122 
TCOON,ioos:station:TCOON:127:1,2015-08-04T13:30:00Z,28.2598,-96.7737,0.0,10.5,1111122 
TCOON,ioos:station:TCOON:127:1,2015-08-04T14:30:00Z,28.2598,-96.7737,0.0,10.0,1111122 
TCOON,ioos:station:TCOON:127:1,2015-08-04T15:30:00Z,28.2598,-96.7737,0.0,10.6,1111122 
TCOON,ioos:station:TCOON:127:1,2015-08-04T20:00:00Z,28.2598,-96.7737,0.0,13.2,1111122 
TCOON,ioos:station:TCOON:127:1,2015-08-04T21:30:00Z,28.2598,-96.7737,0.0,13.2,1111122 
TCOON,ioos:station:TCOON:127:1,2015-08-05T00:30:00Z,28.2598,-96.7737,0.0,13.3,1111122 
TCOON,ioos:station:TCOON:127:1,2015-08-05T01:30:00Z,28.2598,-96.7737,0.0,13.3,1111122 
TCOON,ioos:station:TCOON:127:1,2015-08-05T02:30:00Z,28.2598,-96.7737,0.0,13.4,1111122 
TCOON,ioos:station:TCOON:127:1,2015-08-05T03:30:00Z,28.2598,-96.7737,0.0,13.7,1111122 
TCOON,ioos:station:TCOON:127:1,2015-08-05T04:30:00Z,28.2598,-96.7737,0.0,14.0,1111122 
TCOON,ioos:station:TCOON:127:1,2015-08-05T05:30:00Z,28.2598,-96.7737,0.0,13.9,1111122 
TCOON,ioos:station:TCOON:127:1,2015-08-05T06:30:00Z,28.2598,-96.7737,0.0,13.9,1111122 
TCOON,ioos:station:TCOON:127:1,2015-08-05T07:30:00Z,28.2598,-96.7737,0.0,14.0,1111122 
TCOON,ioos:station:TCOON:127:1,2015-08-05T08:30:00Z,28.2598,-96.7737,0.0,13.9,1111122 
TCOON,ioos:station:TCOON:127:1,2015-08-05T09:30:00Z,28.2598,-96.7737,0.0,13.7,1111122 
TCOON,ioos:station:TCOON:127:1,2015-08-05T10:30:00Z,28.2598,-96.7737,0.0,13.7,1111122 
TCOON,ioos:station:TCOON:127:1,2015-08-05T11:30:00Z,28.2598,-96.7737,0.0,13.7,1111122 
TCOON,ioos:station:TCOON:127:1,2015-08-05T13:00:00Z,28.2598,-96.7737,0.0,14.1,1111122 
TCOON,ioos:station:TCOON:127:1,2015-08-05T13:30:00Z,28.2598,-96.7737,0.0,14.2,1111122 
TCOON,ioos:station:TCOON:127:1,2015-08-05T14:30:00Z,28.2598,-96.7737,0.0,14.2,1111122 
TCOON,ioos:station:TCOON:127:1,2015-08-05T16:30:00Z,28.2598,-96.7737,0.0,14.2,1111122 
TCOON,ioos:station:TCOON:127:1,2015-08-05T18:30:00Z,28.2598,-96.7737,0.0,14.3,1111122 
TCOON,ioos:station:TCOON:127:1,2015-08-05T19:30:00Z,28.2598,-96.7737,0.0,14.3,1111122 
TCOON,ioos:station:TCOON:127:1,2015-08-05T20:30:00Z,28.2598,-96.7737,0.0,14.5,1111122 
TCOON,ioos:station:TCOON:127:1,2015-08-05T21:30:00Z,28.2598,-96.7737,0.0,15.9,1111122 
TCOON,ioos:station:TCOON:127:1,2015-08-05T22:30:00Z,28.2598,-96.7737,0.0,15.8,1111122 
TCOON,ioos:station:TCOON:127:1,2015-08-05T23:30:00Z,28.2598,-96.7737,0.0,16.0,1111122 
TCOON,ioos:station:TCOON:127:1,2015-08-06T00:30:00Z,28.2598,-96.7737,0.0,16.1,1111122 
TCOON,ioos:station:TCOON:127:1,2015-08-06T02:30:00Z,28.2598,-96.7737,0.0,16.0,1111122 
TCOON,ioos:station:TCOON:127:1,2015-08-06T03:30:00Z,28.2598,-96.7737,0.0,16.1,1111122 
TCOON,ioos:station:TCOON:127:1,2015-08-06T04:30:00Z,28.2598,-96.7737,0.0,16.1,1111122 
TCOON,ioos:station:TCOON:127:1,2015-08-06T05:30:00Z,28.2598,-96.7737,0.0,16.2,1111122 
TCOON,ioos:station:TCOON:127:1,2015-08-06T07:00:00Z,28.2598,-96.7737,0.0,16.2,1111122 
TCOON,ioos:station:TCOON:127:1,2015-08-06T09:30:00Z,28.2598,-96.7737,0.0,16.2,1111122 
TCOON,ioos:station:TCOON:127:1,2015-08-06T11:30:00Z,28.2598,-96.7737,0.0,15.9,1111122 
TCOON,ioos:station:TCOON:127:1,2015-08-06T12:30:00Z,28.2598,-96.7737,0.0,15.6,1111122 
TCOON,ioos:station:TCOON:127:1,2015-08-06T13:30:00Z,28.2598,-96.7737,0.0,15.9,1111122 
TCOON,ioos:station:TCOON:127:1,2015-08-06T14:30:00Z,28.2598,-96.7737,0.0,16.0,1111122 
TCOON,ioos:station:TCOON:127:1,2015-08-06T15:30:00Z,28.2598,-96.7737,0.0,16.1,1111122 
TCOON,ioos:station:TCOON:127:1,2015-08-06T16:30:00Z,28.2598,-96.7737,0.0,16.1,1111122 
TCOON,ioos:station:TCOON:127:1,2015-08-06T17:30:00Z,28.2598,-96.7737,0.0,17.5,1111122 
TCOON,ioos:station:TCOON:127:1,2015-08-06T18:30:00Z,28.2598,-96.7737,0.0,20.0,1111122 
TCOON,ioos:station:TCOON:127:1,2015-08-06T20:00:00Z,28.2598,-96.7737,0.0,19.9,1111122 
TCOON,ioos:station:TCOON:127:1,2015-08-06T22:30:00Z,28.2598,-96.7737,0.0,19.4,1111122 
TCOON,ioos:station:TCOON:127:1,2015-08-06T23:30:00Z,28.2598,-96.7737,0.0,19.2,1111122 
TCOON,ioos:station:TCOON:127:1,2015-08-07T00:30:00Z,28.2598,-96.7737,0.0,20.9,1111122 
TCOON,ioos:station:TCOON:127:1,2015-08-07T04:30:00Z,28.2598,-96.7737,0.0,21.3,1111122 
TCOON,ioos:station:TCOON:127:1,2015-08-07T06:30:00Z,28.2598,-96.7737,0.0,21.7,1111122 
TCOON,ioos:station:TCOON:127:1,2015-08-07T08:00:00Z,28.2598,-96.7737,0.0,21.8,1111122 
TCOON,ioos:station:TCOON:127:1,2015-08-07T10:30:00Z,28.2598,-96.7737,0.0,21.7,1111122 
TCOON,ioos:station:TCOON:127:1,2015-08-07T11:30:00Z,28.2598,-96.7737,0.0,21.5,1111122 
TCOON,ioos:station:TCOON:127:1,2015-08-07T12:30:00Z,28.2598,-96.7737,0.0,21.6,1111122 
TCOON,ioos:station:TCOON:127:1,2015-08-07T13:30:00Z,28.2598,-96.7737,0.0,22.2,1111122 
TCOON,ioos:station:TCOON:127:1,2015-08-07T14:30:00Z,28.2598,-96.7737,0.0,22.3,1111122 
TCOON,ioos:station:TCOON:127:1,2015-08-07T15:30:00Z,28.2598,-96.7737,0.0,22.3,1111122 
TCOON,ioos:station:TCOON:127:1,2015-08-07T16:30:00Z,28.2598,-96.7737,0.0,21.7,1111122 
TCOON,ioos:station:TCOON:127:1,2015-08-07T17:30:00Z,28.2598,-96.7737,0.0,20.8,1111122 
TCOON,ioos:station:TCOON:127:1,2015-08-07T18:30:00Z,28.2598,-96.7737,0.0,19.9,1111122 
TCOON,ioos:station:TCOON:127:1,2015-08-07T19:30:00Z,28.2598,-96.7737,0.0,19.8,1111122 
TCOON,ioos:station:TCOON:127:1,2015-08-07T20:30:00Z,28.2598,-96.7737,0.0,19.5,1111122 
TCOON,ioos:station:TCOON:127:1,2015-08-07T21:30:00Z,28.2598,-96.7737,0.0,19.3,1111122 
TCOON,ioos:station:TCOON:127:1,2015-08-07T22:30:00Z,28.2598,-96.7737,0.0,19.2,1111122 
TCOON,ioos:station:TCOON:127:1,2015-08-07T23:30:00Z,28.2598,-96.7737,0.0,19.1,1111122 
TCOON,ioos:station:TCOON:127:1,2015-08-08T00:30:00Z,28.2598,-96.7737,0.0,19.1,1111122 
TCOON,ioos:station:TCOON:127:1,2015-08-08T01:30:00Z,28.2598,-96.7737,0.0,19.2,1111122 
TCOON,ioos:station:TCOON:127:1,2015-08-08T02:30:00Z,28.2598,-96.7737,0.0,19.2,1111122 
TCOON,ioos:station:TCOON:127:1,2015-08-08T03:30:00Z,28.2598,-96.7737,0.0,19.2,1111122 
TCOON,ioos:station:TCOON:127:1,2015-08-08T04:30:00Z,28.2598,-96.7737,0.0,19.4,1111122 
TCOON,ioos:station:TCOON:127:1,2015-08-08T05:30:00Z,28.2598,-96.7737,0.0,19.3,1111122 
TCOON,ioos:station:TCOON:127:1,2015-08-08T06:30:00Z,28.2598,-96.7737,0.0,19.3,1111122 
TCOON,ioos:station:TCOON:127:1,2015-08-08T07:30:00Z,28.2598,-96.7737,0.0,19.5,1111122 
TCOON,ioos:station:TCOON:127:1,2015-08-08T08:30:00Z,28.2598,-96.7737,0.0,19.5,1111122 
TCOON,ioos:station:TCOON:127:1,2015-08-08T09:30:00Z,28.2598,-96.7737,0.0,19.7,1111122 
TCOON,ioos:station:TCOON:127:1,2015-08-08T10:30:00Z,28.2598,-96.7737,0.0,19.8,1111122 
TCOON,ioos:station:TCOON:127:1,2015-08-08T11:30:00Z,28.2598,-96.7737,0.0,20.3,1111122 
TCOON,ioos:station:TCOON:127:1,2015-08-08T12:30:00Z,28.2598,-96.7737,0.0,20.2,1111122 
TCOON,ioos:station:TCOON:127:1,2015-08-08T13:30:00Z,28.2598,-96.7737,0.0,20.0,1111122 
TCOON,ioos:station:TCOON:127:1,2015-08-08T14:30:00Z,28.2598,-96.7737,0.0,19.9,1111122 
TCOON,ioos:station:TCOON:127:1,2015-08-08T15:30:00Z,28.2598,-96.7737,0.0,19.5,1111122 
TCOON,ioos:station:TCOON:127:1,2015-08-08T16:30:00Z,28.2598,-96.7737,0.0,19.4,1111122 
TCOON,ioos:station:TCOON:127:1,2015-08-08T17:30:00Z,28.2598,-96.7737,0.0,20.6,1111122 
TCOON,ioos:station:TCOON:127:1,2015-08-08T18:30:00Z,28.2598,-96.7737,0.0,20.1,1111122 
TCOON,ioos:station:TCOON:127:1,2015-08-08T19:30:00Z,28.2598,-96.7737,0.0,19.5,1111122 
TCOON,ioos:station:TCOON:127:1,2015-08-08T20:30:00Z,28.2598,-96.7737,0.0,19.3,1111122 
TCOON,ioos:station:TCOON:127:1,2015-08-08T21:30:00Z,28.2598,-96.7737,0.0,19.3,1111122 
TCOON,ioos:station:TCOON:127:1,2015-08-08T22:30:00Z,28.2598,-96.7737,0.0,19.3,1111122 
TCOON,ioos:station:TCOON:127:1,2015-08-08T23:30:00Z,28.2598,-96.7737,0.0,19.3,1111122 
TCOON,ioos:station:TCOON:127:1,2015-08-09T00:30:00Z,28.2598,-96.7737,0.0,19.2,1111122 
TCOON,ioos:station:TCOON:127:1,2015-08-09T06:30:00Z,28.2598,-96.7737,0.0,19.0,1111122 
TCOON,ioos:station:TCOON:127:1,2015-08-09T07:30:00Z,28.2598,-96.7737,0.0,19.2,1111122 
TCOON,ioos:station:TCOON:127:1,2015-08-09T08:30:00Z,28.2598,-96.7737,0.0,19.8,1111122 
TCOON,ioos:station:TCOON:127:1,2015-08-09T09:30:00Z,28.2598,-96.7737,0.0,19.9,1111122 
TCOON,ioos:station:TCOON:127:1,2015-08-09T10:30:00Z,28.2598,-96.7737,0.0,19.9,1111122 
TCOON,ioos:station:TCOON:127:1,2015-08-09T11:30:00Z,28.2598,-96.7737,0.0,19.7,1111122 
TCOON,ioos:station:TCOON:127:1,2015-08-09T12:30:00Z,28.2598,-96.7737,0.0,19.6,1111122 
TCOON,ioos:station:TCOON:127:1,2015-08-09T13:30:00Z,28.2598,-96.7737,0.0,19.5,1111122 
TCOON,ioos:station:TCOON:127:1,2015-08-09T14:30:00Z,28.2598,-96.7737,0.0,19.4,1111122 
TCOON,ioos:station:TCOON:127:1,2015-08-09T15:30:00Z,28.2598,-96.7737,0.0,19.3,1111122 
TCOON,ioos:station:TCOON:127:1,2015-08-09T16:30:00Z,28.2598,-96.7737,0.0,19.4,1111122 
TCOON,ioos:station:TCOON:127:1,2015-08-09T17:30:00Z,28.2598,-96.7737,0.0,19.8,1111122 
TCOON,ioos:station:TCOON:127:1,2015-08-09T18:30:00Z,28.2598,-96.7737,0.0,20.0,1111122 
TCOON,ioos:station:TCOON:127:1,2015-08-09T19:30:00Z,28.2598,-96.7737,0.0,20.2,1111122 
TCOON,ioos:station:TCOON:127:1,2015-08-09T20:30:00Z,28.2598,-96.7737,0.0,21.0,1111122 
TCOON,ioos:station:TCOON:127:1,2015-08-09T21:30:00Z,28.2598,-96.7737,0.0,21.2,1111122 
TCOON,ioos:station:TCOON:127:1,2015-08-09T22:30:00Z,28.2598,-96.7737,0.0,20.6,1111122 
TCOON,ioos:station:TCOON:127:1,2015-08-09T23:30:00Z,28.2598,-96.7737,0.0,21.7,1111122 
TCOON,ioos:station:TCOON:127:1,2015-08-10T00:30:00Z,28.2598,-96.7737,0.0,22.0,1111122 
TCOON,ioos:station:TCOON:127:1,2015-08-10T01:30:00Z,28.2598,-96.7737,0.0,22.0,1111122 
TCOON,ioos:station:TCOON:127:1,2015-08-10T02:30:00Z,28.2598,-96.7737,0.0,21.4,1111122 
TCOON,ioos:station:TCOON:127:1,2015-08-10T03:30:00Z,28.2598,-96.7737,0.0,21.3,1111122 
TCOON,ioos:station:TCOON:127:1,2015-08-10T04:30:00Z,28.2598,-96.7737,0.0,21.0,1111122 
TCOON,ioos:station:TCOON:127:1,2015-08-10T05:30:00Z,28.2598,-96.7737,0.0,20.8,1111122 
TCOON,ioos:station:TCOON:127:1,2015-08-10T06:30:00Z,28.2598,-96.7737,0.0,21.1,1111122 
TCOON,ioos:station:TCOON:127:1,2015-08-10T07:30:00Z,28.2598,-96.7737,0.0,21.3,1111122 
TCOON,ioos:station:TCOON:127:1,2015-08-10T08:30:00Z,28.2598,-96.7737,0.0,21.6,1111122 
TCOON,ioos:station:TCOON:127:1,2015-08-10T09:30:00Z,28.2598,-96.7737,0.0,21.3,1111122 
TCOON,ioos:station:TCOON:127:1,2015-08-10T11:30:00Z,28.2598,-96.7737,0.0,20.9,1111122 
TCOON,ioos:station:TCOON:127:1,2015-08-10T12:30:00Z,28.2598,-96.7737,0.0,21.3,1111122 
TCOON,ioos:station:TCOON:127:1,2015-08-10T13:30:00Z,28.2598,-96.7737,0.0,20.9,1111122 
TCOON,ioos:station:TCOON:127:1,2015-08-10T14:30:00Z,28.2598,-96.7737,0.0,20.8,1111122 
TCOON,ioos:station:TCOON:127:1,2015-08-10T15:30:00Z,28.2598,-96.7737,0.0,20.8,1111122 
TCOON,ioos:station:TCOON:127:1,2015-08-10T16:30:00Z,28.2598,-96.7737,0.0,20.8,1111122 
TCOON,ioos:station:TCOON:127:1,2015-08-10T17:30:00Z,28.2598,-96.7737,0.0,21.2,1111122 
TCOON,ioos:station:TCOON:127:1,2015-08-10T18:30:00Z,28.2598,-96.7737,0.0,21.4,1111122 
TCOON,ioos:station:TCOON:127:1,2015-08-10T19:30:00Z,28.2598,-96.7737,0.0,20.3,1111122 
TCOON,ioos:station:TCOON:127:1,2015-08-10T20:30:00Z,28.2598,-96.7737,0.0,19.7,1111122 
TCOON,ioos:station:TCOON:127:1,2015-08-10T23:00:00Z,28.2598,-96.7737,0.0,19.9,1111122 
TCOON,ioos:station:TCOON:127:1,2015-08-10T23:30:00Z,28.2598,-96.7737,0.0,19.7,1111122 
TCOON,ioos:station:TCOON:127:1,2015-08-11T07:30:00Z,28.2598,-96.7737,0.0,19.3,1111122 
TCOON,ioos:station:TCOON:127:1,2015-08-11T08:30:00Z,28.2598,-96.7737,0.0,19.3,1111122 
TCOON,ioos:station:TCOON:127:1,2015-08-11T09:30:00Z,28.2598,-96.7737,0.0,19.4,1111122 
TCOON,ioos:station:TCOON:127:1,2015-08-11T10:30:00Z,28.2598,-96.7737,0.0,19.2,1111122 
TCOON,ioos:station:TCOON:127:1,2015-08-11T12:30:00Z,28.2598,-96.7737,0.0,21.1,1111122 
TCOON,ioos:station:TCOON:127:1,2015-08-11T13:30:00Z,28.2598,-96.7737,0.0,21.4,1111122 
TCOON,ioos:station:TCOON:127:1,2015-08-11T14:30:00Z,28.2598,-96.7737,0.0,20.2,1111122 
TCOON,ioos:station:TCOON:127:1,2015-08-11T15:30:00Z,28.2598,-96.7737,0.0,21.0,1111122 
TCOON,ioos:station:TCOON:127:1,2015-08-11T16:30:00Z,28.2598,-96.7737,0.0,20.4,1111122 
TCOON,ioos:station:TCOON:127:1,2015-08-11T17:30:00Z,28.2598,-96.7737,0.0,19.0,1111122 
TCOON,ioos:station:TCOON:127:1,2015-08-11T18:30:00Z,28.2598,-96.7737,0.0,16.4,1111122 
TCOON,ioos:station:TCOON:127:1,2015-08-11T19:30:00Z,28.2598,-96.7737,0.0,19.0,1111122 
TCOON,ioos:station:TCOON:127:1,2015-08-11T20:30:00Z,28.2598,-96.7737,0.0,19.4,1111122 
TCOON,ioos:station:TCOON:127:1,2015-08-11T21:30:00Z,28.2598,-96.7737,0.0,17.2,1111122 
TCOON,ioos:station:TCOON:127:1,2015-08-11T22:30:00Z,28.2598,-96.7737,0.0,16.8,1111122 
TCOON,ioos:station:TCOON:127:1,2015-08-11T23:30:00Z,28.2598,-96.7737,0.0,17.2,1111122 
TCOON,ioos:station:TCOON:127:1,2015-08-12T00:30:00Z,28.2598,-96.7737,0.0,16.3,1111122 
TCOON,ioos:station:TCOON:127:1,2015-08-12T09:30:00Z,28.2598,-96.7737,0.0,16.5,1111122 
TCOON,ioos:station:TCOON:127:1,2015-08-12T10:30:00Z,28.2598,-96.7737,0.0,16.4,1111122 
TCOON,ioos:station:TCOON:127:1,2015-08-12T11:30:00Z,28.2598,-96.7737,0.0,16.4,1111122 
TCOON,ioos:station:TCOON:127:1,2015-08-12T12:30:00Z,28.2598,-96.7737,0.0,18.5,1111122 
TCOON,ioos:station:TCOON:127:1,2015-08-12T13:30:00Z,28.2598,-96.7737,0.0,17.5,1111122 
TCOON,ioos:station:TCOON:127:1,2015-08-12T14:30:00Z,28.2598,-96.7737,0.0,17.3,1111122 
TCOON,ioos:station:TCOON:127:1,2015-08-12T15:30:00Z,28.2598,-96.7737,0.0,17.5,1111122 
TCOON,ioos:station:TCOON:127:1,2015-08-12T16:30:00Z,28.2598,-96.7737,0.0,16.9,1111122 
TCOON,ioos:station:TCOON:127:1,2015-08-12T17:30:00Z,28.2598,-96.7737,0.0,17.5,1111122 
TCOON,ioos:station:TCOON:127:1,2015-08-12T18:30:00Z,28.2598,-96.7737,0.0,17.6,1111122 
TCOON,ioos:station:TCOON:127:1,2015-08-12T19:30:00Z,28.2598,-96.7737,0.0,16.1,1111122 
TCOON,ioos:station:TCOON:127:1,2015-08-12T20:30:00Z,28.2598,-96.7737,0.0,16.0,1111122 
TCOON,ioos:station:TCOON:127:1,2015-08-12T22:00:00Z,28.2598,-96.7737,0.0,16.3,1111122 
TCOON,ioos:station:TCOON:127:1,2015-08-12T23:00:00Z,28.2598,-96.7737,0.0,16.7,1111122 
TCOON,ioos:station:TCOON:127:1,2015-08-13T00:30:00Z,28.2598,-96.7737,0.0,16.7,1111122 
TCOON,ioos:station:TCOON:127:1,2015-08-13T08:00:00Z,28.2598,-96.7737,0.0,17.0,1111122 
TCOON,ioos:station:TCOON:127:1,2015-08-13T08:30:00Z,28.2598,-96.7737,0.0,17.1,1111122 
TCOON,ioos:station:TCOON:127:1,2015-08-13T09:30:00Z,28.2598,-96.7737,0.0,16.5,1111122 
TCOON,ioos:station:TCOON:127:1,2015-08-13T10:30:00Z,28.2598,-96.7737,0.0,16.9,1111122 
TCOON,ioos:station:TCOON:127:1,2015-08-13T11:30:00Z,28.2598,-96.7737,0.0,18.2,1111122 
TCOON,ioos:station:TCOON:127:1,2015-08-13T12:30:00Z,28.2598,-96.7737,0.0,18.9,1111122 
TCOON,ioos:station:TCOON:127:1,2015-08-13T13:30:00Z,28.2598,-96.7737,0.0,19.0,1111122 
TCOON,ioos:station:TCOON:127:1,2015-08-13T14:30:00Z,28.2598,-96.7737,0.0,19.2,1111122 
TCOON,ioos:station:TCOON:127:1,2015-08-13T15:30:00Z,28.2598,-96.7737,0.0,19.1,1111122 
TCOON,ioos:station:TCOON:127:1,2015-08-13T17:30:00Z,28.2598,-96.7737,0.0,19.4,1111122 
TCOON,ioos:station:TCOON:127:1,2015-08-13T18:30:00Z,28.2598,-96.7737,0.0,19.1,1111122 
TCOON,ioos:station:TCOON:127:1,2015-08-13T19:30:00Z,28.2598,-96.7737,0.0,19.5,1111122 
TCOON,ioos:station:TCOON:127:1,2015-08-13T20:30:00Z,28.2598,-96.7737,0.0,19.0,1111122 
TCOON,ioos:station:TCOON:127:1,2015-08-13T21:30:00Z,28.2598,-96.7737,0.0,17.7,1111122 
TCOON,ioos:station:TCOON:127:1,2015-08-13T23:30:00Z,28.2598,-96.7737,0.0,18.2,1111122 
TCOON,ioos:station:TCOON:127:1,2015-08-14T00:30:00Z,28.2598,-96.7737,0.0,18.3,1111122 
TCOON,ioos:station:TCOON:127:1,2015-08-14T01:30:00Z,28.2598,-96.7737,0.0,18.3,1111122 
TCOON,ioos:station:TCOON:127:1,2015-08-14T08:00:00Z,28.2598,-96.7737,0.0,18.8,1111122 
TCOON,ioos:station:TCOON:127:1,2015-08-14T09:30:00Z,28.2598,-96.7737,0.0,18.8,1111122 
TCOON,ioos:station:TCOON:127:1,2015-08-14T10:30:00Z,28.2598,-96.7737,0.0,18.8,1111122 
TCOON,ioos:station:TCOON:127:1,2015-08-14T12:30:00Z,28.2598,-96.7737,0.0,18.7,1111122 
TCOON,ioos:station:TCOON:127:1,2015-08-14T13:30:00Z,28.2598,-96.7737,0.0,18.7,1111122 
TCOON,ioos:station:TCOON:127:1,2015-08-14T14:30:00Z,28.2598,-96.7737,0.0,19.7,1111122 
TCOON,ioos:station:TCOON:127:1,2015-08-14T15:30:00Z,28.2598,-96.7737,0.0,20.3,1111122 
TCOON,ioos:station:TCOON:127:1,2015-08-14T16:30:00Z,28.2598,-96.7737,0.0,20.6,1111122 
TCOON,ioos:station:TCOON:127:1,2015-08-14T17:30:00Z,28.2598,-96.7737,0.0,20.6,1111122 
TCOON,ioos:station:TCOON:127:1,2015-08-14T18:30:00Z,28.2598,-96.7737,0.0,19.9,1111122 
TCOON,ioos:station:TCOON:127:1,2015-08-14T19:30:00Z,28.2598,-96.7737,0.0,19.4,1111122 
TCOON,ioos:station:TCOON:127:1,2015-08-14T20:30:00Z,28.2598,-96.7737,0.0,18.6,1111122 
TCOON,ioos:station:TCOON:127:1,2015-08-14T21:30:00Z,28.2598,-96.7737,0.0,17.7,1111122 
TCOON,ioos:station:TCOON:127:1,2015-08-14T23:30:00Z,28.2598,-96.7737,0.0,18.0,1111122 
TCOON,ioos:station:TCOON:127:1,2015-08-15T00:30:00Z,28.2598,-96.7737,0.0,17.9,1111122 
TCOON,ioos:station:TCOON:127:1,2015-08-15T01:30:00Z,28.2598,-96.7737,0.0,17.9,1111122 
TCOON,ioos:station:TCOON:127:1,2015-08-15T02:30:00Z,28.2598,-96.7737,0.0,17.9,1111122 
TCOON,ioos:station:TCOON:127:1,2015-08-15T04:30:00Z,28.2598,-96.7737,0.0,17.8,1111122 
TCOON,ioos:station:TCOON:127:1,2015-08-15T05:30:00Z,28.2598,-96.7737,0.0,18.0,1111122 
TCOON,ioos:station:TCOON:127:1,2015-08-15T08:30:00Z,28.2598,-96.7737,0.0,17.5,1111122 
TCOON,ioos:station:TCOON:127:1,2015-08-15T09:30:00Z,28.2598,-96.7737,0.0,17.6,1111122 
TCOON,ioos:station:TCOON:127:1,2015-08-15T10:30:00Z,28.2598,-96.7737,0.0,17.6,1111122 
TCOON,ioos:station:TCOON:127:1,2015-08-15T11:30:00Z,28.2598,-96.7737,0.0,18.2,1111122 
TCOON,ioos:station:TCOON:127:1,2015-08-15T12:30:00Z,28.2598,-96.7737,0.0,18.4,1111122 
TCOON,ioos:station:TCOON:127:1,2015-08-15T13:30:00Z,28.2598,-96.7737,0.0,18.4,1111122 
TCOON,ioos:station:TCOON:127:1,2015-08-15T15:30:00Z,28.2598,-96.7737,0.0,19.2,1111122 
TCOON,ioos:station:TCOON:127:1,2015-08-15T16:30:00Z,28.2598,-96.7737,0.0,13.7,1111122 
TCOON,ioos:station:TCOON:127:1,2015-08-15T17:30:00Z,28.2598,-96.7737,0.0,20.2,1111122 
TCOON,ioos:station:TCOON:127:1,2015-08-15T18:30:00Z,28.2598,-96.7737,0.0,16.5,1111122 
TCOON,ioos:station:TCOON:127:1,2015-08-15T19:30:00Z,28.2598,-96.7737,0.0,15.4,1111122 
TCOON,ioos:station:TCOON:127:1,2015-08-15T20:30:00Z,28.2598,-96.7737,0.0,14.9,1111122 
TCOON,ioos:station:TCOON:127:1,2015-08-15T21:30:00Z,28.2598,-96.7737,0.0,15.0,1111122 
TCOON,ioos:station:TCOON:127:1,2015-08-15T22:30:00Z,28.2598,-96.7737,0.0,15.1,1111122 
TCOON,ioos:station:TCOON:127:1,2015-08-15T23:30:00Z,28.2598,-96.7737,0.0,15.5,1111122 
TCOON,ioos:station:TCOON:127:1,2015-08-16T00:30:00Z,28.2598,-96.7737,0.0,15.7,1111122 
TCOON,ioos:station:TCOON:127:1,2015-08-16T01:30:00Z,28.2598,-96.7737,0.0,15.8,1111122 
TCOON,ioos:station:TCOON:127:1,2015-08-16T02:30:00Z,28.2598,-96.7737,0.0,15.9,1111122 
TCOON,ioos:station:TCOON:127:1,2015-08-16T03:30:00Z,28.2598,-96.7737,0.0,15.9,1111122 
TCOON,ioos:station:TCOON:127:1,2015-08-16T05:30:00Z,28.2598,-96.7737,0.0,15.9,1111122 
TCOON,ioos:station:TCOON:127:1,2015-08-16T06:30:00Z,28.2598,-96.7737,0.0,16.0,1111122 
TCOON,ioos:station:TCOON:127:1,2015-08-16T08:00:00Z,28.2598,-96.7737,0.0,16.1,1111122 
TCOON,ioos:station:TCOON:127:1,2015-08-16T08:30:00Z,28.2598,-96.7737,0.0,16.1,1111122 
TCOON,ioos:station:TCOON:127:1,2015-08-16T09:30:00Z,28.2598,-96.7737,0.0,16.2,1111122 
TCOON,ioos:station:TCOON:127:1,2015-08-16T10:30:00Z,28.2598,-96.7737,0.0,16.3,1111122 
TCOON,ioos:station:TCOON:127:1,2015-08-16T11:30:00Z,28.2598,-96.7737,0.0,15.4,1111122 
TCOON,ioos:station:TCOON:127:1,2015-08-16T12:30:00Z,28.2598,-96.7737,0.0,15.3,1111122 
TCOON,ioos:station:TCOON:127:1,2015-08-16T13:30:00Z,28.2598,-96.7737,0.0,15.0,1111122 
TCOON,ioos:station:TCOON:127:1,2015-08-16T14:30:00Z,28.2598,-96.7737,0.0,15.5,1111122 
TCOON,ioos:station:TCOON:127:1,2015-08-16T15:30:00Z,28.2598,-96.7737,0.0,15.1,1111122 
TCOON,ioos:station:TCOON:127:1,2015-08-16T16:30:00Z,28.2598,-96.7737,0.0,14.9,1111122 
TCOON,ioos:station:TCOON:127:1,2015-08-16T17:30:00Z,28.2598,-96.7737,0.0,14.8,1111122 
TCOON,ioos:station:TCOON:127:1,2015-08-16T18:30:00Z,28.2598,-96.7737,0.0,14.2,1111122 
TCOON,ioos:station:TCOON:127:1,2015-08-16T19:30:00Z,28.2598,-96.7737,0.0,14.0,1111122 
TCOON,ioos:station:TCOON:127:1,2015-08-16T20:30:00Z,28.2598,-96.7737,0.0,14.0,1111122 
TCOON,ioos:station:TCOON:127:1,2015-08-16T21:30:00Z,28.2598,-96.7737,0.0,14.0,1111122 
TCOON,ioos:station:TCOON:127:1,2015-08-16T22:30:00Z,28.2598,-96.7737,0.0,13.8,1111122 
TCOON,ioos:station:TCOON:127:1,2015-08-16T23:30:00Z,28.2598,-96.7737,0.0,13.9,1111122 
TCOON,ioos:station:TCOON:127:1,2015-08-17T00:30:00Z,28.2598,-96.7737,0.0,14.0,1111122 
TCOON,ioos:station:TCOON:127:1,2015-08-17T01:30:00Z,28.2598,-96.7737,0.0,14.0,1111122 
TCOON,ioos:station:TCOON:127:1,2015-08-17T02:30:00Z,28.2598,-96.7737,0.0,13.9,1111122 
TCOON,ioos:station:TCOON:127:1,2015-08-17T03:30:00Z,28.2598,-96.7737,0.0,14.0,1111122 
TCOON,ioos:station:TCOON:127:1,2015-08-17T04:30:00Z,28.2598,-96.7737,0.0,13.9,1111122 
TCOON,ioos:station:TCOON:127:1,2015-08-17T05:30:00Z,28.2598,-96.7737,0.0,13.7,1111122 
TCOON,ioos:station:TCOON:127:1,2015-08-17T07:30:00Z,28.2598,-96.7737,0.0,13.9,1111122 
TCOON,ioos:station:TCOON:127:1,2015-08-17T08:30:00Z,28.2598,-96.7737,0.0,13.6,1111122 
TCOON,ioos:station:TCOON:127:1,2015-08-17T09:30:00Z,28.2598,-96.7737,0.0,13.8,1111122 